Weather History for KUIN - October, 2012

Change the Weather History Date:

Saturday, October 20, 2012

  Actual Average Record
Temperature  
Mean Temperature 53 °F 53 °F  
Max Temperature 59 °F 64 °F 87 °F (1953)
Min Temperature 46 °F 43 °F 22 °F (1960)
Degree Days  
Heating Degree Days 12 12  
Month to date heating degree days 232 185  
Since 1 July heating degree days 317 272  
Cooling Degree Days 0 0  
Month to date cooling degree days 0 14  
Year to date cooling degree days 1552 1090  
Growing Degree Days 2 (Base 50)    
Moisture  
Dew Point 44 °F    
Average Humidity 78    
Maximum Humidity 93    
Minimum Humidity 62    
Precipitation  
Precipitation 0.00 in 0.10 in 1.29 in (2005)
Month to date precipitation 3.42 1.96  
Year to date precipitation 21.98 31.01  
Sea Level Pressure  
Sea Level Pressure 29.84 in    
Wind  
Wind Speed 5 mph (WSW)    
Max Wind Speed 12 mph    
Max Gust Speed 14 mph    
Visibility 10 miles    
Events      
T = Trace of Precipitation, MM = Missing Value Source: NWS Daily Summary

Daily Weather History Graph

Daily Weather History Graph

Search for Another Location

Airport or City:

Trip Planner

Search our weather history database for the weather conditions in past years. The results will help you decide how hot, cold, wet, or windy it might be!

Date:

Astronomy

Oct. 20, 2012 Rise Set
Actual Time 7:21 AM CDT 6:17 PM CDT
Civil Twilight 6:53 AM CDT 6:44 PM CDT
Nautical Twilight 6:22 AM CDT 7:16 PM CDT
Astronomical Twilight 5:50 AM CDT 7:47 PM CDT
Moon 12:57 PM CDT (10/20) 11:03 PM CDT (10/20)
Length of Visible Light 11h 51m
Length of Day
10h 56m
Waxing Crescent, 34% of the Moon is Illuminated
Oct 20
Waxing Crescent
Oct 21
First Quarter
Oct 29
Full
Nov 6
Last Quarter
Nov 13
New

Hourly Weather History & Observations

Time (CDT) Temp. Windchill Dew Point Humidity Pressure Visibility Wind Dir Wind Speed Gust Speed Precip Events Conditions
12:07 AM 46.4 °F 41.5 °F 44.6 °F 93% 29.77 in 7.0 mi WNW 10.4 mph - N/A   Overcast
12:32 AM 46.4 °F 42.4 °F 44.6 °F 93% 29.77 in 10.0 mi West 8.1 mph - N/A   Overcast
12:50 AM 46.4 °F 42.4 °F 44.6 °F 93% 29.77 in 10.0 mi WNW 8.1 mph - N/A   Overcast
12:54 AM 46.9 °F - 44.1 °F 90% 29.78 in 10.0 mi West 9.2 mph - N/A   Overcast
1:17 AM 46.4 °F 42.4 °F 44.6 °F 93% 29.78 in 10.0 mi WNW 8.1 mph - N/A   Overcast
1:54 AM 46.9 °F - 44.1 °F 90% 29.79 in 10.0 mi West 8.1 mph - N/A   Overcast
2:54 AM 46.9 °F - 43.0 °F 86% 29.79 in 10.0 mi WNW 5.8 mph - N/A   Overcast
3:01 AM 46.4 °F 44.3 °F 44.6 °F 93% 29.78 in 10.0 mi WNW 4.6 mph - N/A   Overcast
3:35 AM 46.4 °F 42.9 °F 42.8 °F 87% 29.79 in 10.0 mi NW 6.9 mph - N/A   Overcast
3:54 AM 46.9 °F - 43.0 °F 86% 29.79 in 10.0 mi WNW 5.8 mph - N/A   Overcast
4:33 AM 46.4 °F 44.3 °F 42.8 °F 87% 29.79 in 10.0 mi West 4.6 mph - N/A   Overcast
4:54 AM 46.9 °F - 43.0 °F 86% 29.80 in 10.0 mi West 5.8 mph - N/A   Overcast
5:54 AM 46.9 °F - 43.0 °F 86% 29.82 in 10.0 mi West 4.6 mph - N/A   Overcast
6:54 AM 46.9 °F - 42.1 °F 83% 29.84 in 10.0 mi West 4.6 mph - N/A   Overcast
7:54 AM 46.0 °F 44.8 °F 43.0 °F 89% 29.86 in 10.0 mi WSW 3.5 mph - N/A   Overcast
8:20 AM 46.4 °F - 42.8 °F 87% 29.86 in 10.0 mi Calm Calm - N/A   Mostly Cloudy
8:54 AM 48.0 °F - 43.0 °F 83% 29.88 in 10.0 mi West 4.6 mph - N/A   Mostly Cloudy
8:59 AM 48.2 °F - 42.8 °F 82% 29.88 in 10.0 mi WNW 5.8 mph - N/A   Overcast
9:11 AM 48.2 °F - 42.8 °F 82% 29.88 in 10.0 mi West 5.8 mph - N/A   Overcast
9:54 AM 48.0 °F - 43.0 °F 83% 29.89 in 10.0 mi West 4.6 mph - N/A   Overcast
10:54 AM 50.0 °F - 43.0 °F 77% 29.90 in 10.0 mi Calm Calm - N/A   Overcast
11:54 AM 51.1 °F - 43.0 °F 74% 29.89 in 10.0 mi WSW 3.5 mph - N/A   Overcast
12:54 PM 53.1 °F - 44.1 °F 71% 29.88 in 10.0 mi South 3.5 mph - N/A   Mostly Cloudy
1:54 PM 55.9 °F - 45.0 °F 67% 29.87 in 10.0 mi SW 6.9 mph - N/A   Overcast
2:27 PM 57.2 °F - 44.6 °F 63% 29.85 in 10.0 mi Variable 5.8 mph - N/A   Scattered Clouds
2:54 PM 57.0 °F - 44.1 °F 62% 29.85 in 10.0 mi Calm Calm - N/A   Clear
3:54 PM 57.9 °F - 45.0 °F 62% 29.85 in 10.0 mi South 6.9 mph - N/A   Scattered Clouds
4:54 PM 57.9 °F - 45.0 °F 62% 29.84 in 10.0 mi ESE 4.6 mph - N/A   Mostly Cloudy
5:54 PM 55.9 °F - 46.0 °F 69% 29.83 in 10.0 mi SE 4.6 mph - N/A   Clear
6:54 PM 54.0 °F - 44.1 °F 69% 29.85 in 10.0 mi ESE 5.8 mph - N/A   Clear
7:54 PM 51.1 °F - 44.1 °F 77% 29.86 in 10.0 mi ESE 6.9 mph - N/A   Clear
8:54 PM 50.0 °F - 44.1 °F 80% 29.88 in 10.0 mi ESE 6.9 mph - N/A   Clear
9:54 PM 50.0 °F - 44.1 °F 80% 29.88 in 10.0 mi SE 8.1 mph - N/A   Clear
10:54 PM 48.9 °F - 44.1 °F 83% 29.88 in 10.0 mi ESE 9.2 mph - N/A   Clear
11:54 PM 46.9 °F - 43.0 °F 86% 29.88 in 10.0 mi SE 6.9 mph - N/A   Clear